Location: Coll
(42.4728°N, 0.7714°E)
Time: 12:36:02
(UTC+00:00)

Meteor PRIRODA - Pass Details

Date: 23 October 2020
Orbit: 491 x 509 km, 97.6° (Epoch: 01 December)

Event Time Altitude Azimuth Distance (km) Brightness Sun altitude
Rises 05:40:04 0° 5° (N) 2,582 7.2 -8.0°
Reaches altitude 10° 05:42:12 10° 359° (N) 1,697 6.2 -7.6°
Maximum altitude 05:45:40 43° 287° (WNW) 712 4.0 -7.0°
Drops below altitude 10° 05:49:07 10° 215° (SW) 1,691 6.1 -6.4°
Sets 05:51:15 0° 209° (SSW) 2,572 7.0 -6.0°
